Regional Weather Roundup
Issued by NWS

Home | Current Version | Previous Version | Text Only | Print | Product List | Glossary On
Versions: 1 2 3 4 5 6 7 8 9 10 11 12 13 14 15 16 17 18 19 20 21 22 23 24 25 26 27 28 29 30 31 32 33 34 35 36 37 38 39 40 41 42 43 44 45 46 47 48 49 50
000
ASUS43 KMKX 230159
RWRWI

WISCONSIN REGIONAL WEATHER ROUNDUP
NATIONAL WEATHER SERVICE MILWAUKEE/SULLIVAN WI
900 PM CDT SUN APR 22 2018

NOTE: "FAIR" INDICATES FEW OR NO CLOUDS BELOW 12,000 FEET WITH NO
SIGNIFICANT WEATHER AND/OR OBSTRUCTIONS TO VISIBILITY.

WIZ001-002-006>008-014>016-023>028-230300-
NORTHWEST WISCONSIN

CITY           SKY/WX    TMP DP  RH WIND       PRES   REMARKS
SUPERIOR ARPT  FAIR      37  28  72 CALM      30.24S
ASHLAND        FAIR      36  25  64 NW5       30.25S WCI  32
HAYWARD        FAIR      42  27  55 CALM      30.26R
SIREN          FAIR      51  32  48 CALM      30.25S
CUMBERLAND     FAIR      48  30  49 CALM      30.25S
RICE LAKE      FAIR      49  33  55 CALM      30.27R
CHETEK         FAIR      53  32  45 S3        30.26R
LADYSMITH      FAIR      53  25  33 SE5       30.28S
EAU CLAIRE     NOT AVBL
MENOMONIE      FAIR      55  33  43 CALM      30.25S
NEW RICHMOND   FAIR      51  34  53 CALM      30.25R
OSCEOLA        FAIR      54  35  49 CALM      30.27R
$$

WIZ003>005-009-010-017-018-230300-
NORTH CENTRAL WISCONSIN

CITY           SKY/WX    TMP DP  RH WIND       PRES   REMARKS
MANITOWISH WTR FAIR      42  24  49 CALM      30.26R
ARBOR VITAE    FAIR      51  25  36 S3        30.27R
WOODRUFF       FAIR      51  25  36 S3        30.27R
RHINELANDER    FAIR      50  21  32 CALM      30.29R
EAGLE RIVER    FAIR      49  19  30 S3        30.27R
LAND O LAKES   FAIR      39  19  44 CALM      30.29R
PHILLIPS       FAIR      42  27  54 CALM      30.27R
TOMAHAWK       FAIR      43  22  42 CALM      30.28S
MEDFORD        FAIR      45  29  53 S5        30.28R
MERRILL          N/A     50  16  25 S3        30.30R
$$

WIZ029-030-035-036-043>047-230300-
CENTRAL WISCONSIN

CITY           SKY/WX    TMP DP  RH WIND       PRES   REMARKS
WAUSAU         FAIR      49  16  26 SE3       30.28R
MOSINEE        NOT AVBL
MARSHFIELD     FAIR      49  18  29 E5        30.28R
STEVENS POINT  FAIR      39  22  50 CALM      30.30S
WAUPACA        FAIR      44  29  54 CALM      30.30R
WAUTOMA        FAIR      41  31  67 CALM      30.30R
WISC RAPIDS    FAIR      46  18  32 E5        30.29S
CAMP DOUGLAS   NOT AVBL
$$

WIZ011>013-019>022-031-037>040-048>050-230300-
NORTHEAST WISCONSIN

CITY           SKY/WX    TMP DP  RH WIND       PRES   REMARKS
ANTIGO         FAIR      42  22  46 S5        30.30S
SHAWANO        FAIR      43  31  63 CALM      30.31R
OCONTO         FAIR      39  26  58 CALM      30.31S
STURGEON BAY   NOT AVBL
GREEN BAY      FAIR      45  30  55 N6        30.31R
MANITOWOC      FAIR      44  24  45 CALM      30.32R
APPLETON       CLEAR     48  25  40 CALM      30.29R
CLINTONVILLE   FAIR      43  27  53 CALM      30.31R
OSHKOSH        FAIR      47  30  51 CALM      30.29S
$$

WIZ032>034-041-042-053>061-230300-
SOUTHWEST WISCONSIN

CITY           SKY/WX    TMP DP  RH WIND       PRES   REMARKS
LA CROSSE      FAIR      58  27  30 E3        30.25R
SPARTA         FAIR      47  24  39 CALM      30.28R
VIROQUA        FAIR      50  25  38 E5        30.25S
BOSCOBEL       FAIR      52  30  43 E3        30.26R
PRAIRIE DU CHI FAIR      58  22  24 NE7       30.24R
PLATTEVILLE    FAIR      51  35  54 E8        30.25R
$$

WIZ056-057-062-063-064-067-068-230300-
SOUTH CENTRAL WISCONSIN

CITY           SKY/WX    TMP DP  RH WIND       PRES   REMARKS
REEDSBURG      FAIR      51  28  41 E3        30.27S
BARABOO/DELLS  FAIR      49  27  42 E5        30.28S
LONE ROCK      NOT AVBL
MINERAL POINT  FAIR      54  30  40 E8        30.26R
MADISON        FAIR      45  30  55 E7        30.28R
MIDDLETON      FAIR      52  29  41 E6        30.28R
WATERTOWN      FAIR      46  30  54 CALM      30.29R
MONROE         FAIR      50  27  40 E5        30.26R
JANESVILLE     CLEAR     46  28  49 NE7       30.27F
$$

WIZ051-052-058>065-066-070>072-230300-
SOUTHEAST WISCONSIN

CITY           SKY/WX    TMP DP  RH WIND       PRES   REMARKS
MILWAUKEE      FAIR      42  29  59 N3        30.31R
WAUKESHA       CLEAR     46  25  42 NE12      30.30R
MILWAUKEE/TIMM CLEAR     43  21  42 NE5       30.32R
RACINE         FAIR      41  28  60 N6        30.31R
BURLINGTON     FAIR      50  26  39 E3        30.28R
KENOSHA        FAIR      41  27  57 NE7       30.29R
FOND DU LAC    FAIR      43  31  62 CALM      30.29S
SHEBOYGAN      FAIR      39  32  76 CALM      30.31R
WEST BEND      FAIR      41  27  56 E7        30.30R
JUNEAU         FAIR      49  27  42 CALM      30.30S
$$

LSZ147-162-230300-
LAKE SUPERIOR

STATION/POSITION TIME  TEMP    WIND        PRES    WAVE
                       AIR SEA DIR/SP/G            HT/PER
                 (UTC) (F)     (DEG/KT/KT) (MB)    (FT/S)
DEVILS ISLAND    0100   47     140/  7/  8 1024.4S
SAXON HARBOR     0140   35     170/  2/  3 1023.4F
$$

LMZ867-665-643>646-230300-
LAKE MICHIGAN

STATION/POSITION TIME  TEMP    WIND        PRES    WAVE
                       AIR SEA DIR/SP/G            HT/PER
                 (UTC) (F)     (DEG/KT/KT) (MB)    (FT/S)
NORTHPORT PIER   0140   40                 1026.4S
KEWAUNEE LAKESHO 0130   41     290/  2/  2 1025.8R
SHEBOYGAN LAKESH 0100   42      40/  6/  7 1026.7F
PORT WASHINGTON  0130   44      10/  4/  9 1027.4R
MILWAUKEE LAKESH 0130   42      10/  8/  9   N/A
KENOSHA   LAKESH 0100   40                 1025.4
$$

TC  - TEMPERATURE IN CELSIUS
VSB - VISIBILITY IN STATUTE MILES
WCI - WIND CHILL INDEX
HX  - HEAT INDEX




USA.gov is the U.S. government's official web portal to all federal, state and local government web resources and services.